FW2710 Weather Reports


Display with metric or nautical units.
time (UTC)temp
F
wind
direction
speed
MPH
gust
MPH
rain 1hr
in
rain 24hr
in
rain mn
in
humidity
%
barometer
mb
20260905040049 80 0 0.0 0.0 0.00 0.00 0.00 84 1014.5
20260905035525 80 0 0.0 0.0 0.00 0.00 0.00 84 1014.5
20260905035028 80 0 0.0 0.0 0.00 0.00 0.00 85 1014.6
20260905034554 80 0 0.0 0.0 0.00 0.00 0.00 85 1014.7
20260905034025 79 0 0.0 0.0 0.00 0.00 0.00 85 1014.6
20260905033526 79 0 0.0 0.0 0.00 0.00 0.00 85 1014.5
20260905033045 79 0 0.0 0.0 0.00 0.00 0.00 85 1014.5
20260905032529 79 0 0.0 0.0 0.00 0.00 0.00 85 1014.7
20260905032026 79 0 0.0 0.0 0.00 0.00 0.00 86 1014.7
20260905031554 79 0 0.0 0.0 0.00 0.00 0.00 86 1014.7
20260905031026 79 0 0.0 0.0 0.00 0.00 0.00 85 1014.6
20260905030527 80 0 0.0 0.0 0.00 0.00 0.00 85 1014.6
20260905030047 80 0 0.0 0.0 0.00 0.00 0.00 85 1014.7
20260905025526 80 0 0.0 0.0 0.00 0.00 0.00 85 1014.6
20260905025027 80 0 0.0 0.0 0.00 0.00 0.00 84 1014.6
20260905024548 80 0 0.0 0.0 0.00 0.00 0.00 83 1014.5
20260905024027 81 0 0.0 0.0 0.00 0.00 0.00 82 1014.5
20260905023527 81 0 0.0 0.0 0.00 0.00 0.00 82 1014.6
20260905023046 81 0 0.0 0.0 0.00 0.00 0.00 82 1014.5
20260905022527 81 0 0.0 0.0 0.00 0.00 0.00 82 1014.5
20260905022026 82 0 0.0 0.0 0.00 0.00 0.00 82 1014.5
20260905021546 82 0 0.0 0.0 0.00 0.00 0.00 81 1014.4
20260905021030 82 0 0.0 0.0 0.00 0.00 0.00 81 1014.3
20260905020525 82 0 0.0 0.0 0.00 0.00 0.00 81 1014.4
20260905020048 82 0 0.0 0.0 0.00 0.00 0.00 81 1014.3
20260905015529 82 0 0.0 0.0 0.00 0.00 0.00 80 1014.3
20260905015027 82 0 0.0 0.0 0.00 0.00 0.00 79 1014.2
20260905014547 82 0 0.0 0.0 0.00 0.00 0.00 79 1014.2
20260905014026 82 0 0.0 0.0 0.00 0.00 0.00 78 1014.1
20260905013529 83 0 0.0 0.0 0.00 0.00 0.00 78 1014.0
20260905013050 83 0 0.0 0.0 0.00 0.00 0.00 78 1014.0
20260905012527 83 0 0.0 0.0 0.00 0.00 0.00 77 1013.9
20260905012146 83 0 0.0 0.0 0.00 0.00 0.00 77 1013.7
20260905011549 83 0 0.0 0.0 0.00 0.00 0.00 77 1013.8
20260905011027 84 0 0.0 0.0 0.00 0.00 0.00 77 1013.9
20260905010526 84 0 0.0 0.0 0.00 0.00 0.00 76 1013.9
20260905010046 84 0 0.0 0.0 0.00 0.00 0.00 76 1013.9
20260905005527 85 0 0.0 0.0 0.00 0.00 0.00 77 1013.7
20260905005027 85 0 0.0 0.0 0.00 0.00 0.00 76 1013.8
20260905004549 85 0 0.0 0.0 0.00 0.00 0.00 76 1013.6
20260905004025 86 0 0.0 0.0 0.00 0.00 0.00 75 1013.7
20260905003527 86 0 0.0 0.0 0.00 0.00 0.00 75 1013.6
20260905003052 86 0 0.0 0.0 0.00 0.00 0.00 74 1013.6
20260905002524 87 0 0.0 0.0 0.00 0.00 0.00 74 1013.7
20260905002027 88 0 0.0 0.0 0.00 0.00 0.00 73 1013.6
20260905001555 88 0 0.0 0.0 0.00 0.00 0.00 72 1013.7
20260905001030 89 0 0.0 0.0 0.00 0.00 0.00 71 1013.7
20260905000526 89 0 0.0 0.0 0.00 0.00 0.00 71 1013.7
20260904235525 90 0 0.0 0.0 0.00 0.00 0.00 69 1013.7
20260904235031 91 0 0.0 0.0 0.00 0.00 0.00 69 1013.5
20260904234547 91 0 0.0 0.0 0.00 0.00 0.00 67 1013.5
20260904234025 92 0 0.0 0.0 0.00 0.00 0.00 65 1013.5
20260904233525 92 0 0.0 0.0 0.00 0.00 0.00 63 1013.6
20260904233054 93 0 0.0 0.0 0.00 0.00 0.00 63 1013.6
20260904232527 93 0 0.0 0.0 0.00 0.00 0.00 63 1013.6
20260904232028 94 0 0.0 0.0 0.00 0.00 0.00 61 1013.7
20260904231557 94 0 0.0 0.0 0.00 0.00 0.00 61 1013.7
20260904231026 94 0 0.0 0.0 0.00 0.00 0.00 60 1013.7
20260904230526 95 0 0.0 0.0 0.00 0.00 0.00 60 1013.9
20260904230049 95 0 0.0 0.0 0.00 0.00 0.00 60 1013.9
20260904225527 95 0 0.0 0.0 0.00 0.00 0.00 61 1013.8
20260904225027 95 0 0.0 0.0 0.00 0.00 0.00 59 1013.8
20260904224554 95 0 0.0 0.0 0.00 0.00 0.00 58 1013.9
20260904224026 96 0 0.0 0.0 0.00 0.00 0.00 57 1013.7
20260904223527 96 0 0.0 0.0 0.00 0.00 0.00 58 1013.7
20260904223100 96 0 0.0 0.0 0.00 0.00 0.00 56 1013.6
20260904222525 96 0 0.0 0.0 0.00 0.00 0.00 56 1013.6
20260904222026 96 0 0.0 0.0 0.00 0.00 0.00 55 1013.6
20260904221545 96 0 0.0 0.0 0.00 0.00 0.00 55 1013.6
20260904221024 96 0 0.0 0.0 0.00 0.00 0.00 55 1013.6
20260904220524 96 0 0.0 0.0 0.00 0.00 0.00 56 1013.4
20260904220053 96 0 0.0 0.0 0.00 0.00 0.00 55 1013.5
20260904215528 96 0 0.0 0.0 0.00 0.00 0.00 56 1013.6
20260904215028 96 0 0.0 0.0 0.00 0.00 0.00 55 1013.6
20260904214548 96 0 0.0 0.0 0.00 0.00 0.00 56 1013.6
20260904214025 96 0 0.0 0.0 0.00 0.00 0.00 55 1013.5
20260904213529 96 0 0.0 3.0 0.00 0.00 0.00 56 1013.5
20260904213054 96 0 0.0 3.0 0.00 0.00 0.00 55 1013.5
20260904212527 96 0 0.0 3.0 0.00 0.00 0.00 59 1013.7
20260904212027 96 0 0.0 0.0 0.00 0.00 0.00 53 1013.7
20260904211549 96 0 0.0 0.0 0.00 0.00 0.00 55 1013.7
20260904211026 97 0 0.0 0.0 0.00 0.00 0.00 54 1013.7
20260904210526 97 0 0.0 0.0 0.00 0.00 0.00 53 1013.8
20260904210059 97 0 0.0 0.0 0.00 0.00 0.00 53 1013.9
20260904205528 97 0 0.0 0.0 0.00 0.00 0.00 56 1013.9
20260904205025 97 0 0.0 0.0 0.00 0.00 0.00 54 1014.1
20260904204544 97 0 0.0 0.0 0.00 0.00 0.00 53 1014.1
20260904204024 97 0 0.0 0.0 0.00 0.00 0.00 56 1014.2
20260904203523 96 0 0.0 0.0 0.00 0.00 0.00 57 1014.2
20260904203100 96 0 0.0 0.0 0.00 0.00 0.00 56 1014.3
20260904202527 96 0 0.0 0.0 0.00 0.00 0.00 56 1014.3
20260904202026 97 0 0.0 0.0 0.00 0.00 0.00 57 1014.4
20260904201547 97 0 0.0 0.0 0.00 0.00 0.00 53 1014.5
20260904201026 97 0 0.0 0.0 0.00 0.00 0.00 55 1014.5
20260904200527 96 0 0.0 0.0 0.00 0.00 0.00 55 1014.6
20260904200046 97 0 0.0 0.0 0.00 0.00 0.00 54 1014.7
20260904195526 97 0 0.0 0.0 0.00 0.00 0.00 56 1014.9
20260904195025 97 0 0.0 0.0 0.00 0.00 0.00 56 1014.9
20260904194546 97 0 0.0 4.0 0.00 0.00 0.00 56 1014.9
20260904194024 97 0 0.0 4.0 0.00 0.00 0.00 55 1014.8
20260904193523 97 0 0.0 4.0 0.00 0.00 0.00 55 1014.9
20260904193103 97 0 0.0 4.0 0.00 0.00 0.00 55 1014.9
20260904192528 97 289 0.0 2.0 0.00 0.00 0.00 57 1015.0
20260904192027 97 0 0.0 2.0 0.00 0.00 0.00 55 1015.0
20260904191553 97 0 0.0 3.0 0.00 0.00 0.00 57 1015.0
20260904191024 96 0 0.0 3.0 0.00 0.00 0.00 57 1015.1
20260904190524 96 0 0.0 3.0 0.00 0.00 0.00 60 1015.2
20260904190044 96 0 0.0 2.0 0.00 0.00 0.00 57 1015.3
20260904185526 96 0 0.0 0.0 0.00 0.00 0.00 59 1015.3
20260904185025 95 0 0.0 0.0 0.00 0.00 0.00 60 1015.4
20260904184545 95 0 0.0 0.0 0.00 0.00 0.00 56 1015.4
20260904184026 95 0 0.0 0.0 0.00 0.00 0.00 59 1015.5
20260904183522 95 0 0.0 0.0 0.00 0.00 0.00 57 1015.4
20260904183050 95 0 0.0 0.0 0.00 0.00 0.00 60 1015.4
20260904182523 95 0 0.0 0.0 0.00 0.00 0.00 60 1015.5
20260904182030 95 0 0.0 3.0 0.00 0.00 0.00 59 1015.4
20260904181546 95 0 0.0 3.0 0.00 0.00 0.00 60 1015.5
20260904181025 95 0 0.0 0.0 0.00 0.00 0.00 63 1015.5
20260904180528 95 0 0.0 0.0 0.00 0.00 0.00 60 1015.6
20260904180048 95 0 0.0 0.0 0.00 0.00 0.00 60 1015.7
20260904175530 95 0 0.0 0.0 0.00 0.00 0.00 58 1015.8
20260904175023 95 0 0.0 0.0 0.00 0.00 0.00 61 1015.7
20260904174542 94 0 0.0 0.0 0.00 0.00 0.00 60 1015.8
20260904174023 94 0 0.0 0.0 0.00 0.00 0.00 60 1015.9
20260904173523 94 0 0.0 4.0 0.00 0.00 0.00 60 1015.9
20260904173055 94 0 0.0 4.0 0.00 0.00 0.00 60 1015.9
20260904172527 93 0 0.0 0.0 0.00 0.00 0.00 63 1015.9
20260904172028 93 0 0.0 3.0 0.00 0.00 0.00 61 1016.0
20260904171546 93 0 0.0 3.0 0.00 0.00 0.00 60 1016.0
20260904171025 92 0 0.0 3.0 0.00 0.00 0.00 62 1016.1
20260904170525 92 0 0.0 3.0 0.00 0.00 0.00 63 1016.2
20260904170047 91 0 0.0 6.0 0.00 0.00 0.00 62 1016.3
20260904165525 91 0 0.0 6.0 0.00 0.00 0.00 65 1016.3
20260904165024 91 0 1.0 7.0 0.00 0.00 0.00 63 1016.4
20260904164542 91 0 0.0 7.0 0.00 0.00 0.00 63 1016.3
20260904164023 91 0 0.0 0.0 0.00 0.00 0.00 64 1016.3
20260904163527 90 0 0.0 3.0 0.00 0.00 0.00 67 1016.2
20260904163051 90 0 0.0 4.0 0.00 0.00 0.00 64 1016.2
20260904162530 90 0 0.0 4.0 0.00 0.00 0.00 65 1016.2
20260904162026 90 0 0.0 4.0 0.00 0.00 0.00 65 1016.2
20260904161557 90 0 0.0 4.0 0.00 0.00 0.00 66 1016.2
20260904161024 90 0 0.0 4.0 0.00 0.00 0.00 65 1016.3
20260904160529 89 0 0.0 6.0 0.00 0.00 0.00 66 1016.2
20260904160056 89 0 0.0 6.0 0.00 0.00 0.00 65 1016.2
20260904155526 89 289 0.0 4.0 0.00 0.00 0.00 66 1016.2
20260904155026 89 0 0.0 8.0 0.00 0.00 0.00 66 1016.2
20260904154543 89 0 0.0 8.0 0.00 0.00 0.00 67 1016.0
20260904154028 88 289 1.0 8.0 0.00 0.00 0.00 66 1016.1
20260904153524 88 0 0.0 6.0 0.00 0.00 0.00 69 1016.0
20260904153047 88 289 0.0 7.0 0.00 0.00 0.00 70 1016.0
20260904152529 87 289 0.0 7.0 0.00 0.00 0.00 69 1016.0
20260904152027 87 0 1.0 7.0 0.00 0.00 0.00 70 1016.0
20260904151549 87 0 0.0 7.0 0.00 0.00 0.00 70 1016.0
20260904151027 87 289 2.0 8.0 0.00 0.00 0.00 69 1015.9
20260904150527 86 0 1.0 8.0 0.00 0.00 0.00 70 1015.8
20260904150045 86 0 0.0 6.0 0.00 0.00 0.00 71 1015.9
20260904145525 86 289 1.0 6.0 0.00 0.00 0.00 71 1015.9
20260904145025 85 289 0.0 6.0 0.00 0.00 0.00 71 1015.9
20260904144605 85 0 0.0 4.0 0.00 0.00 0.00 73 1015.8
20260904144028 84 0 0.0 3.0 0.00 0.00 0.00 73 1015.7
20260904143526 84 289 0.0 3.0 0.00 0.00 0.00 73 1015.8
20260904143056 84 0 0.0 4.0 0.00 0.00 0.00 74 1015.8
20260904142526 83 0 0.0 4.0 0.00 0.00 0.00 74 1015.8
20260904142026 83 0 0.0 8.0 0.00 0.00 0.00 75 1015.7
20260904141546 83 0 0.0 8.0 0.00 0.00 0.00 75 1015.7
20260904141025 82 0 0.0 4.0 0.00 0.00 0.00 75 1015.7
20260904140525 82 0 0.0 4.0 0.00 0.00 0.00 74 1015.7
20260904140049 82 0 0.0 7.0 0.00 0.00 0.00 75 1015.7
20260904135525 81 0 0.0 7.0 0.00 0.00 0.00 75 1015.7
20260904135023 81 0 1.0 7.0 0.00 0.00 0.00 76 1015.7
20260904134549 81 0 0.0 4.0 0.00 0.00 0.00 78 1015.7
20260904134029 80 0 0.0 0.0 0.00 0.00 0.00 78 1015.8
20260904133529 80 0 0.0 0.0 0.00 0.00 0.00 80 1015.8
20260904133057 80 0 0.0 0.0 0.00 0.00 0.00 80 1015.7
20260904132526 79 0 0.0 0.0 0.00 0.00 0.00 80 1015.7
20260904132028 79 0 0.0 3.0 0.00 0.00 0.00 80 1015.6
20260904131548 79 0 0.0 4.0 0.00 0.00 0.00 80 1015.6
20260904131023 79 289 0.0 4.0 0.00 0.00 0.00 80 1015.5
20260904130525 78 0 0.0 0.0 0.00 0.00 0.00 81 1015.5
20260904130052 78 0 0.0 6.0 0.00 0.00 0.00 81 1015.4
20260904125524 78 0 0.0 6.0 0.00 0.00 0.00 81 1015.2
20260904125024 78 0 0.0 1.0 0.00 0.00 0.00 81 1015.2
20260904124549 78 0 0.0 2.0 0.00 0.00 0.00 81 1015.2
20260904124026 78 0 0.0 4.0 0.00 0.00 0.00 81 1015.2
20260904123528 78 0 0.0 4.0 0.00 0.00 0.00 81 1015.0
20260904123046 77 0 0.0 4.0 0.00 0.00 0.00 81 1015.0
20260904122530 77 0 0.0 0.0 0.00 0.00 0.00 81 1014.9
20260904122026 77 0 0.0 0.0 0.00 0.00 0.00 81 1014.8
20260904121545 77 0 0.0 0.0 0.00 0.00 0.00 81 1014.8
20260904121027 77 0 0.0 0.0 0.00 0.00 0.00 81 1014.8
20260904120524 77 0 0.0 0.0 0.00 0.00 0.00 81 1014.7
20260904120049 77 0 0.0 0.0 0.00 0.00 0.00 81 1014.7
20260904115523 77 0 0.0 0.0 0.00 0.00 0.00 81 1014.7
20260904115026 77 0 0.0 0.0 0.00 0.00 0.00 81 1014.6
20260904114550 77 0 0.0 0.0 0.00 0.00 0.00 81 1014.5
20260904114024 77 0 0.0 0.0 0.00 0.00 0.00 81 1014.5
20260904113526 77 0 0.0 0.0 0.00 0.00 0.00 81 1014.7
20260904113049 77 0 0.0 0.0 0.00 0.00 0.00 81 1014.6
20260904112525 77 0 0.0 0.0 0.00 0.00 0.00 81 1014.5
20260904112025 77 0 0.0 0.0 0.00 0.00 0.00 82 1014.7
20260904111546 77 0 0.0 0.0 0.00 0.00 0.00 82 1014.6
20260904111025 77 0 0.0 0.0 0.00 0.00 0.00 82 1014.6
20260904110526 77 0 0.0 0.0 0.00 0.00 0.00 82 1014.8
20260904110050 77 0 0.0 0.0 0.00 0.00 0.00 82 1014.6
20260904105526 76 0 0.0 0.0 0.00 0.00 0.00 83 1014.6
20260904105024 76 0 0.0 0.0 0.00 0.00 0.00 83 1014.7
20260904104546 76 0 0.0 0.0 0.00 0.00 0.00 83 1014.6
20260904104026 76 0 0.0 0.0 0.00 0.00 0.00 83 1014.7
20260904103525 76 0 0.0 0.0 0.00 0.00 0.00 83 1014.6
20260904103045 76 0 0.0 0.0 0.00 0.00 0.00 83 1014.6
20260904102525 76 0 0.0 0.0 0.00 0.00 0.00 83 1014.7
20260904102023 76 0 0.0 0.0 0.00 0.00 0.00 83 1014.7
20260904101550 76 0 0.0 0.0 0.00 0.00 0.00 82 1014.7
20260904101024 76 0 0.0 0.0 0.00 0.00 0.00 82 1014.7
20260904100524 77 0 0.0 0.0 0.00 0.00 0.00 82 1014.7
20260904100045 77 0 0.0 0.0 0.00 0.00 0.00 82 1014.9
20260904095526 77 0 0.0 0.0 0.00 0.00 0.00 81 1014.8
20260904095022 77 0 0.0 0.0 0.00 0.00 0.00 81 1014.8
20260904094547 77 0 0.0 0.0 0.00 0.00 0.00 81 1014.7
20260904094025 77 0 0.0 0.0 0.00 0.00 0.00 80 1014.9
20260904093525 78 0 0.0 0.0 0.00 0.00 0.00 80 1014.8
20260904093048 78 0 0.0 0.0 0.00 0.00 0.00 80 1014.8
20260904092525 78 0 0.0 0.0 0.00 0.00 0.00 79 1014.6
20260904092024 78 0 0.0 0.0 0.00 0.00 0.00 79 1014.6
20260904091556 78 0 0.0 0.0 0.00 0.00 0.00 79 1014.7
20260904091023 78 0 0.0 0.0 0.00 0.00 0.00 79 1014.5
20260904090524 78 0 0.0 0.0 0.00 0.00 0.00 78 1014.5
20260904090048 79 0 0.0 0.0 0.00 0.00 0.00 78 1014.4
20260904085523 79 0 0.0 0.0 0.00 0.00 0.00 78 1014.4
20260904085029 79 0 0.0 0.0 0.00 0.00 0.00 78 1014.3
20260904084547 79 0 0.0 0.0 0.00 0.00 0.00 78 1014.3
20260904084026 79 0 0.0 3.0 0.00 0.00 0.00 78 1014.2
20260904083525 79 0 0.0 3.0 0.00 0.00 0.00 78 1014.3
20260904083049 78 0 0.0 0.0 0.00 0.00 0.00 78 1014.3
20260904082525 78 0 0.0 0.0 0.00 0.00 0.00 79 1014.3
20260904082024 78 0 0.0 0.0 0.00 0.00 0.00 79 1014.2
20260904081546 78 0 0.0 0.0 0.00 0.00 0.00 79 1014.2
20260904081025 78 0 0.0 0.0 0.00 0.00 0.00 79 1014.2
20260904080525 78 0 0.0 0.0 0.00 0.00 0.00 79 1014.3
20260904080047 78 0 0.0 0.0 0.00 0.00 0.00 80 1014.2
20260904075526 78 0 0.0 0.0 0.00 0.00 0.00 80 1014.3
20260904075029 77 0 0.0 0.0 0.00 0.00 0.00 81 1014.3
20260904074601 77 0 0.0 0.0 0.00 0.00 0.00 81 1014.2
20260904074028 77 0 0.0 0.0 0.00 0.00 0.00 81 1014.3
20260904073523 77 0 0.0 0.0 0.00 0.00 0.00 82 1014.3
20260904073050 77 0 0.0 0.0 0.00 0.00 0.00 82 1014.3
20260904072529 76 0 0.0 0.0 0.00 0.00 0.00 81 1014.5
20260904072023 76 0 0.0 0.0 0.00 0.00 0.00 81 1014.6
20260904071610 77 0 0.0 0.0 0.00 0.00 0.00 81 1014.6
20260904071027 77 0 0.0 0.0 0.00 0.00 0.00 81 1014.7
20260904070526 77 0 0.0 0.0 0.00 0.00 0.00 80 1014.7
20260904070051 77 0 0.0 0.0 0.00 0.00 0.00 80 1014.9
20260904065525 77 0 0.0 0.0 0.00 0.00 0.00 80 1015.0
20260904065025 77 0 0.0 0.0 0.00 0.00 0.00 80 1014.9
20260904064601 77 0 0.0 0.0 0.00 0.00 0.00 80 1015.0
20260904064025 77 0 0.0 0.0 0.00 0.00 0.00 80 1014.8
20260904063523 77 0 0.0 0.0 0.00 0.00 0.00 79 1014.7
20260904063053 77 0 0.0 0.0 0.00 0.00 0.00 79 1014.7
20260904062523 77 0 0.0 0.0 0.00 0.00 0.00 79 1014.8
20260904062023 77 0 0.0 0.0 0.00 0.00 0.00 79 1014.8
20260904061545 77 0 0.0 0.0 0.00 0.00 0.00 79 1014.8
20260904061024 77 0 0.0 0.0 0.00 0.00 0.00 79 1014.9
20260904060525 78 0 0.0 0.0 0.00 0.00 0.00 78 1014.9
20260904060047 78 0 0.0 0.0 0.00 0.00 0.00 78 1014.9
20260904055526 78 0 0.0 0.0 0.00 0.00 0.00 78 1015.0
20260904055025 78 0 0.0 0.0 0.00 0.00 0.00 78 1015.0
20260904054546 78 0 0.0 0.0 0.00 0.00 0.00 78 1015.0
20260904054025 78 0 0.0 0.0 0.00 0.00 0.00 78 1014.9
20260904053525 78 0 0.0 0.0 0.00 0.00 0.00 77 1014.8
20260904053059 78 0 0.0 0.0 0.00 0.00 0.00 77 1014.9
20260904052525 78 0 0.0 0.0 0.00 0.00 0.00 77 1014.9
20260904052025 78 0 0.0 0.0 0.00 0.00 0.00 77 1014.9
20260904051548 78 0 0.0 0.0 0.00 0.00 0.00 77 1014.9
20260904051025 79 0 0.0 0.0 0.00 0.00 0.00 77 1014.9
20260904050527 79 0 0.0 0.0 0.00 0.00 0.00 77 1014.9
20260904050050 79 0 0.0 0.0 0.00 0.00 0.00 77 1014.9
20260904045526 78 0 0.0 0.0 0.00 0.00 0.00 78 1014.9
20260904045025 78 0 0.0 0.0 0.00 0.00 0.00 77 1014.9
20260904044558 78 0 0.0 0.0 0.00 0.00 0.00 78 1014.9
20260904044023 78 0 0.0 0.0 0.00 0.00 0.00 78 1015.0
20260904043523 78 0 0.0 0.0 0.00 0.00 0.00 79 1015.0
20260904043049 78 0 0.0 0.0 0.00 0.00 0.00 80 1015.0
20260904042523 79 0 0.0 0.0 0.00 0.00 0.00 80 1015.0
20260904042029 79 0 0.0 0.0 0.00 0.00 0.00 79 1014.9
20260904041547 79 0 0.0 0.0 0.00 0.00 0.00 79 1015.0
20260904041024 79 0 0.0 0.0 0.00 0.00 0.00 79 1014.9
20260904040528 79 0 0.0 0.0 0.00 0.00 0.00 78 1014.9